Powrót do katalogu

SL-12 DEB

AktywnyHEO
NORAD 24990·DEBRIS·🇷🇺 Russia

Wystrzelony Sep 16, 1987 z Baikonur Cosmodrome

Loading…

Następne Przeloty (najbliższe 24 godziny)

TLE

ŚwieżeSource: Space-Track

Epoka: Sep 14, 2026, 07:24 UTC

1 24990U 87079J   26257.30853832  .00000097  00000-0  38509-3 0  9993
2 24990  64.7152  64.6712 5328288  16.5872 355.6686  4.81059275508601

Śledź SL-12 DEB w czasie rzeczywistym z AllMySat

Download on the App Store